�N����,����,�~����,�C��,���x,�C��,����,���ϕ���,�ő�u�ԕ���,�ő厞����,���˗�,�I�_���x,�n�����x,�ő啗���N��,DTYPE
"18/12/27","00:10",0.0,7.6,90.1,1009.3,300.8,2.3,4.2,338.5,0.00,6.1,8.8,"00:08:00",1
"18/12/27","00:20",0.0,7.7,89.7,1009.3,307.4,2.5,6.3,328.1,0.00,6.2,8.7,"00:10:48",1
"18/12/27","00:30",0.0,7.9,89.3,1009.5,303.5,2.5,4.2,321.8,0.00,6.3,8.7,"00:25:36",1
"18/12/27","00:40",0.0,7.9,88.5,1009.3,315.3,2.6,3.9,324.3,0.00,6.2,8.9,"00:36:56",1
"18/12/27","00:50",0.0,7.8,87.6,1009.3,306.6,2.8,4.2,332.4,0.00,5.9,9.0,"00:47:36",1
"18/12/27","01:00",0.0,7.7,87.9,1009.3,305.5,2.8,5.2,328.6,0.00,5.9,8.8,"00:56:32",1
"18/12/27","01:10",0.0,7.5,87.8,1009.0,314.6,3.1,5.4,336.2,0.00,5.7,8.7,"01:01:20",1
"18/12/27","01:20",0.0,7.2,88.0,1009.0,298.1,2.3,3.3,312.0,0.00,5.4,8.6,"01:10:08",1
"18/12/27","01:30",0.0,7.0,88.3,1009.5,314.6,2.5,2.9,331.2,0.00,5.2,8.4,"01:24:00",1
"18/12/27","01:40",0.0,6.9,89.0,1009.0,314.6,2.3,3.6,329.0,0.00,5.3,8.5,"01:35:52",1
"18/12/27","01:50",0.0,6.8,89.8,1008.6,293.1,1.8,2.5,310.4,0.00,5.3,8.6,"01:48:16",1
"18/12/27","02:00",0.0,6.9,90.2,1008.8,305.4,2.2,3.1,314.6,0.00,5.4,8.5,"01:53:36",1
"18/12/27","02:10",0.0,7.1,90.2,1009.0,300.3,2.1,3.4,318.9,0.00,5.6,8.5,"02:02:00",1
"18/12/27","02:20",0.0,7.1,89.8,1009.0,304.7,2.0,2.7,323.3,0.00,5.6,8.4,"02:12:16",1
"18/12/27","02:30",0.0,7.1,89.9,1009.3,306.5,2.2,3.7,322.5,0.00,5.6,8.3,"02:22:00",1
"18/12/27","02:40",0.0,7.1,89.2,1009.0,306.4,2.5,4.2,311.1,0.00,5.5,8.2,"02:35:12",1
"18/12/27","02:50",0.0,7.1,88.8,1009.0,309.1,2.5,3.7,322.1,0.00,5.4,8.4,"02:46:40",1
"18/12/27","03:00",0.0,7.0,88.1,1009.0,304.7,2.5,3.6,325.6,0.00,5.2,8.3,"02:54:40",1
"18/12/27","03:10",0.0,6.9,88.4,1009.3,309.5,2.2,3.7,310.9,0.00,5.2,8.2,"03:02:00",1
"18/12/27","03:20",0.0,6.7,88.3,1009.0,311.2,2.0,2.9,322.3,0.00,4.9,8.2,"03:13:44",1
"18/12/27","03:30",0.0,6.5,88.8,1009.5,324.3,2.1,2.9,324.9,0.00,4.8,8.4,"03:20:56",1
"18/12/27","03:40",0.0,6.3,89.4,1009.3,312.6,1.7,2.7,328.2,0.00,4.7,8.1,"03:36:56",1
"18/12/27","03:50",0.0,6.3,90.0,1009.3,293.6,1.8,2.9,311.7,0.00,4.8,8.2,"03:44:24",1
"18/12/27","04:00",0.0,6.3,88.9,1009.3,308.5,2.0,3.3,318.7,0.00,4.6,8.5,"03:59:28",1
"18/12/27","04:10",0.0,6.2,88.9,1009.3,304.5,1.7,3.4,309.6,0.00,4.5,8.2,"04:06:56",1
"18/12/27","04:20",0.0,6.4,88.3,1009.3,309.4,2.5,6.6,318.6,0.00,4.6,8.0,"04:15:28",1
"18/12/27","04:30",0.0,6.1,87.0,1009.3,303.0,1.8,3.6,329.5,0.00,4.1,8.1,"04:27:04",1
"18/12/27","04:40",0.0,5.8,87.3,1009.0,317.4,1.8,2.9,347.6,0.00,3.9,8.2,"04:31:52",1
"18/12/27","04:50",0.0,5.5,87.7,1008.8,299.6,1.8,2.7,313.7,0.00,3.7,8.2,"04:44:08",1
"18/12/27","05:00",0.0,5.3,87.9,1009.0,295.3,1.3,2.2,318.3,0.00,3.5,8.2,"04:50:48",1
"18/12/27","05:10",0.0,5.2,88.7,1009.0,296.3,1.3,2.5,318.8,0.00,3.5,8.0,"05:01:20",1
"18/12/27","05:20",0.0,5.1,88.8,1009.0,287.8,1.5,3.6,327.9,0.00,3.4,8.0,"05:10:32",1
"18/12/27","05:30",0.0,5.2,88.7,1009.0,296.1,1.3,2.8,322.9,0.00,3.5,8.2,"05:20:40",1
"18/12/27","05:40",0.0,5.3,89.0,1009.0,308.0,1.6,3.1,328.3,0.00,3.7,8.0,"05:37:44",1
"18/12/27","05:50",0.0,5.0,88.6,1009.3,311.3,2.2,3.6,319.9,0.00,3.3,8.0,"05:42:48",1
"18/12/27","06:00",0.0,5.3,89.8,1009.5,296.2,1.8,2.9,298.5,0.00,3.8,8.1,"05:58:56",1
"18/12/27","06:10",0.0,6.2,87.6,1009.7,289.4,2.7,4.0,300.0,0.00,4.3,8.0,"06:08:40",1
"18/12/27","06:20",0.0,6.7,84.2,1010.0,294.8,2.5,4.2,327.8,0.00,4.3,8.0,"06:12:24",1
"18/12/27","06:30",0.0,7.0,81.0,1010.0,278.4,2.3,3.5,264.8,0.00,4.0,7.9,"06:29:28",1
"18/12/27","06:40",0.0,7.2,78.1,1010.4,272.0,2.5,4.0,269.4,0.00,3.7,8.0,"06:35:20",1
"18/12/27","06:50",0.0,7.1,76.7,1010.7,277.3,2.5,4.1,307.5,0.00,3.3,8.0,"06:44:32",1
"18/12/27","07:00",0.0,7.0,76.0,1010.4,274.8,2.2,3.2,266.0,0.00,3.1,7.8,"06:56:48",1
"18/12/27","07:10",0.0,6.9,75.3,1010.7,286.2,2.3,4.7,327.2,0.00,2.9,7.9,"07:00:16",1
"18/12/27","07:20",0.0,7.0,75.0,1010.2,279.6,2.2,3.1,265.0,0.00,2.9,7.8,"07:13:44",1
"18/12/27","07:30",0.0,6.9,73.9,1010.7,283.4,2.5,4.1,297.4,0.00,2.6,7.9,"07:20:32",1
"18/12/27","07:40",0.0,6.6,74.2,1010.7,286.9,2.6,4.3,261.5,0.00,2.4,8.1,"07:32:08",1
"18/12/27","07:50",0.0,6.7,74.6,1010.7,281.7,3.0,5.6,299.0,0.00,2.6,8.1,"07:49:36",1
"18/12/27","08:00",0.0,6.9,73.6,1010.7,282.1,2.5,4.7,287.1,0.00,2.6,7.9,"07:51:20",1
"18/12/27","08:10",0.0,6.8,73.0,1010.4,280.7,2.3,3.9,327.4,0.00,2.3,7.9,"08:04:56",1
"18/12/27","08:20",0.0,6.7,73.2,1010.7,283.7,2.3,4.5,276.0,0.00,2.3,8.0,"08:16:08",1
"18/12/27","08:30",0.0,7.2,73.1,1010.4,281.8,1.8,3.2,296.6,0.03,2.7,7.9,"08:21:12",1
"18/12/27","08:40",0.0,7.6,71.2,1010.7,280.9,2.0,3.5,319.6,0.04,2.8,7.7,"08:37:20",1
"18/12/27","08:50",0.0,7.8,70.9,1010.7,291.6,2.1,3.9,311.8,0.06,2.9,8.0,"08:46:56",1
"18/12/27","09:00",0.0,8.0,69.6,1010.9,266.4,2.0,3.7,262.5,0.08,2.8,8.1,"08:56:32",1
"18/12/27","09:10",0.0,8.2,69.3,1010.7,280.0,2.2,4.3,330.8,0.09,3.0,7.9,"09:07:20",1
"18/12/27","09:20",0.0,8.4,68.4,1010.7,311.6,2.3,4.1,316.6,0.11,3.0,8.0,"09:16:32",1
"18/12/27","09:30",0.0,8.7,67.2,1010.4,282.4,2.5,4.2,311.2,0.14,3.0,8.2,"09:20:48",1
"18/12/27","09:40",0.0,8.9,66.4,1010.7,272.8,2.7,5.4,261.9,0.17,3.0,8.2,"09:37:12",1
"18/12/27","09:50",0.0,9.1,65.2,1010.2,284.8,2.2,4.2,296.7,0.19,3.0,8.1,"09:49:28",1
"18/12/27","10:00",0.0,9.6,64.4,1010.7,271.2,2.3,5.8,235.7,0.23,3.3,8.6,"09:56:56",1
"18/12/27","10:10",0.0,9.4,63.8,1010.2,283.3,3.0,5.5,319.4,0.24,2.9,8.5,"10:08:08",1
"18/12/27","10:20",0.0,8.8,65.0,1010.0,290.3,2.8,5.8,306.7,0.12,2.6,8.7,"10:10:08",1
"18/12/27","10:30",0.0,9.0,65.6,1010.4,283.2,3.4,5.2,345.4,0.12,2.9,8.8,"10:21:44",1
"18/12/27","10:40",0.0,9.3,62.8,1010.0,285.2,2.8,5.7,260.0,0.21,2.6,8.9,"10:39:44",1
"18/12/27","10:50",0.0,9.3,62.7,1010.0,281.0,3.4,5.5,319.7,0.13,2.6,8.9,"10:49:04",1
"18/12/27","11:00",0.0,9.0,62.4,1009.7,303.9,5.5,10.4,318.1,0.12,2.2,9.0,"10:53:36",1
"18/12/27","11:10",0.0,9.8,62.1,1009.5,288.1,4.1,8.5,333.4,0.26,2.9,9.2,"11:07:12",1
"18/12/27","11:20",0.0,9.9,62.0,1009.5,291.4,3.2,5.5,285.7,0.35,3.0,9.2,"11:17:12",1
"18/12/27","11:30",0.0,10.2,62.0,1009.0,280.1,3.0,5.2,304.6,0.37,3.3,9.2,"11:24:08",1
"18/12/27","11:40",0.0,10.2,63.3,1009.3,274.4,3.4,5.6,323.1,0.34,3.6,9.5,"11:33:28",1
"18/12/27","11:50",0.0,10.1,64.3,1009.0,272.3,3.4,7.1,249.3,0.39,3.7,9.6,"11:49:28",1
"18/12/27","12:00",0.0,10.5,64.8,1008.8,274.1,3.1,5.5,267.2,0.46,4.2,9.8,"11:50:08",1
"18/12/27","12:10",0.0,9.7,66.6,1008.6,278.5,3.5,7.1,335.7,0.33,3.8,9.7,"12:06:40",1
"18/12/27","12:20",0.0,10.2,67.4,1008.6,288.0,3.5,6.5,293.6,0.30,4.5,9.9,"12:11:36",1
"18/12/27","12:30",0.0,10.0,67.3,1008.3,303.9,3.6,6.5,344.9,0.38,4.3,10.0,"12:27:44",1
"18/12/27","12:40",0.0,10.4,65.1,1008.6,303.4,3.9,7.3,339.3,0.40,4.2,10.3,"12:32:40",1
"18/12/27","12:50",0.0,9.6,68.0,1008.3,293.3,3.4,7.1,320.0,0.29,4.0,10.2,"12:48:48",1
"18/12/27","13:00",0.0,9.2,69.2,1008.3,304.9,4.6,8.6,329.8,0.12,3.9,10.4,"12:54:08",1
"18/12/27","13:10",0.0,9.0,70.5,1008.1,309.9,4.2,6.2,343.3,0.07,4.0,10.3,"13:04:08",1
"18/12/27","13:20",0.0,8.6,71.3,1008.1,315.3,4.4,6.8,329.9,0.08,3.7,10.4,"13:16:40",1
"18/12/27","13:30",0.0,8.9,70.2,1008.1,312.3,4.1,7.8,341.0,0.09,3.8,10.1,"13:29:44",1
"18/12/27","13:40",0.0,9.7,72.2,1008.1,301.6,4.1,7.5,341.2,0.22,5.0,10.4,"13:30:16",1
"18/12/27","13:50",0.0,9.4,69.0,1008.1,315.1,3.9,7.0,329.6,0.19,4.0,10.3,"13:45:44",1
"18/12/27","14:00",0.0,9.2,68.1,1008.1,319.9,4.2,5.9,296.3,0.08,3.7,10.3,"13:52:40",1
"18/12/27","14:10",0.0,9.0,70.1,1007.8,323.2,4.1,6.3,320.7,0.10,3.9,10.3,"14:02:40",1
"18/12/27","14:20",0.0,9.5,67.2,1007.6,314.3,4.0,5.6,320.8,0.20,3.8,10.3,"14:16:24",1
"18/12/27","14:30",0.0,9.8,63.8,1007.6,302.0,3.6,5.4,337.1,0.25,3.3,10.6,"14:27:04",1
"18/12/27","14:40",0.0,10.3,63.8,1007.6,305.6,4.4,8.2,336.9,0.29,3.8,10.4,"14:34:40",1
"18/12/27","14:50",0.0,10.0,63.2,1007.8,289.4,3.5,6.0,321.0,0.19,3.4,10.4,"14:40:40",1
"18/12/27","15:00",0.0,10.1,62.6,1008.1,325.5,3.9,6.5,331.0,0.12,3.3,10.5,"14:52:56",1
"18/12/27","15:10",0.0,9.4,62.0,1008.6,327.4,5.0,8.6,307.9,0.06,2.5,10.5,"15:07:44",1
"18/12/27","15:20",0.0,8.8,62.9,1008.3,331.3,6.5,9.8,344.2,0.04,2.2,10.3,"15:14:16",1
"18/12/27","15:30",0.0,8.4,64.2,1008.3,322.9,6.6,10.1,336.1,0.02,2.1,10.3,"15:22:00",1
"18/12/27","15:40",0.0,8.3,65.2,1008.3,305.0,4.4,6.5,314.4,0.01,2.2,10.2,"15:33:12",1
"18/12/27","15:50",0.0,8.3,66.6,1008.3,305.2,3.2,5.9,333.1,0.01,2.5,10.1,"15:40:16",1
"18/12/27","16:00",0.0,8.3,67.8,1008.6,303.6,4.6,13.6,326.3,0.02,2.7,10.0,"15:59:06",1
"18/12/27","16:10",0.0,8.2,67.9,1008.6,306.1,4.7,8.2,335.4,0.01,2.7,9.9,"16:01:20",1
"18/12/27","16:20",0.0,8.6,67.3,1008.6,303.8,4.7,10.3,340.4,0.04,2.9,9.9,"16:13:54",1
"18/12/27","16:30",0.0,8.2,66.1,1008.6,311.4,4.6,8.3,325.6,0.02,2.3,9.9,"16:23:20",1
"18/12/27","16:40",0.0,7.8,66.4,1008.8,312.2,4.4,7.3,329.0,0.00,2.0,9.7,"16:34:08",1
"18/12/27","16:50",0.0,7.7,66.2,1009.0,308.7,5.1,8.3,329.9,0.00,1.8,9.6,"16:41:22",1
"18/12/27","17:00",0.0,7.5,66.8,1008.8,307.0,3.6,7.4,315.3,0.00,1.8,9.5,"16:50:24",1
"18/12/27","17:10",0.0,7.5,65.8,1008.8,319.0,5.6,8.3,338.1,0.00,1.6,9.3,"17:01:44",1
"18/12/27","17:20",0.0,7.5,64.5,1008.8,323.4,4.7,7.4,328.3,0.00,1.3,9.4,"17:16:08",1
"18/12/27","17:30",0.0,7.4,64.4,1009.5,292.7,3.6,7.0,257.3,0.00,1.2,9.4,"17:22:02",1
"18/12/27","17:40",0.0,7.2,65.5,1009.3,291.0,2.8,4.9,315.4,0.00,1.2,9.2,"17:30:16",1
"18/12/27","17:50",0.0,7.0,66.5,1009.0,298.6,3.7,7.8,313.3,0.00,1.2,9.0,"17:47:44",1
"18/12/27","18:00",0.0,6.7,67.9,1008.8,317.5,5.5,10.0,329.6,0.00,1.2,9.2,"17:57:04",1
"18/12/27","18:10",0.0,6.7,68.4,1009.3,326.9,4.5,8.0,311.3,0.00,1.3,9.0,"18:05:04",1
"18/12/27","18:20",0.0,6.6,68.3,1009.0,318.6,3.9,6.6,338.2,0.00,1.2,9.0,"18:13:12",1
"18/12/27","18:30",0.0,6.3,69.4,1009.3,299.3,2.8,5.4,332.7,0.00,1.2,8.9,"18:28:16",1
"18/12/27","18:40",0.0,6.2,70.7,1009.0,301.2,3.6,8.2,318.5,0.00,1.3,8.7,"18:38:08",1
"18/12/27","18:50",0.0,6.2,71.0,1009.3,312.5,5.2,11.2,334.4,0.00,1.4,8.8,"18:46:24",1
"18/12/27","19:00",0.0,6.1,71.4,1009.0,319.8,3.6,7.3,338.8,0.00,1.4,8.7,"18:58:16",1
"18/12/27","19:10",0.0,6.1,71.7,1009.0,302.6,3.5,8.2,325.8,0.00,1.4,8.6,"19:02:32",1
"18/12/27","19:20",0.0,5.8,72.1,1009.0,304.7,3.6,6.4,327.5,0.00,1.2,8.5,"19:14:56",1
"18/12/27","19:30",0.0,5.6,73.5,1009.0,285.5,3.7,5.9,327.4,0.00,1.3,8.6,"19:21:44",1
"18/12/27","19:40",0.0,5.4,74.4,1009.3,285.2,3.1,5.5,290.3,0.00,1.3,8.6,"19:34:40",1
"18/12/27","19:50",0.0,5.4,75.4,1009.5,294.7,3.4,6.7,331.6,0.00,1.4,8.3,"19:45:04",1
"18/12/27","20:00",0.0,5.4,75.5,1009.7,276.3,3.2,5.8,321.1,0.00,1.5,8.5,"19:58:16",1
"18/12/27","20:10",0.0,5.4,75.1,1009.5,295.4,3.7,7.3,333.6,0.00,1.4,8.4,"20:01:20",1
"18/12/27","20:20",0.0,5.4,74.9,1010.0,289.7,3.9,8.2,339.9,0.00,1.4,8.5,"20:18:38",1
"18/12/27","20:30",0.0,5.4,74.7,1010.0,275.5,2.6,5.0,250.8,0.00,1.3,8.3,"20:21:52",1
"18/12/27","20:40",0.0,5.3,75.2,1010.0,284.5,2.8,4.2,302.5,0.00,1.3,8.2,"20:32:40",1
"18/12/27","20:50",0.0,5.4,74.8,1010.2,294.3,3.7,8.3,322.0,0.00,1.3,8.2,"20:44:40",1
"18/12/27","21:00",0.0,5.3,74.9,1009.7,296.8,3.4,6.6,323.6,0.00,1.3,8.1,"20:57:44",1
"18/12/27","21:10",0.0,5.2,74.9,1010.2,289.8,3.6,7.3,327.7,0.00,1.2,8.2,"21:09:12",1
"18/12/27","21:20",0.0,5.2,75.2,1010.2,300.7,3.4,5.8,337.1,0.00,1.2,8.0,"21:11:20",1
"18/12/27","21:30",0.0,5.1,75.4,1010.2,295.9,3.1,7.7,345.3,0.00,1.2,8.0,"21:29:04",1
"18/12/27","21:40",0.0,5.1,75.0,1010.0,315.7,4.4,7.8,337.8,0.00,1.1,7.9,"21:35:04",1
"18/12/27","21:50",0.0,5.0,74.6,1010.0,307.2,4.5,8.8,328.0,0.00,0.9,8.1,"21:41:04",1
"18/12/27","22:00",0.0,4.8,74.6,1009.5,289.6,3.2,5.6,309.5,0.00,0.7,8.0,"21:54:32",1
"18/12/27","22:10",0.0,4.7,74.4,1009.5,285.6,3.1,6.6,318.7,0.00,0.6,7.9,"22:04:56",1
"18/12/27","22:20",0.0,4.5,74.5,1009.5,292.3,3.4,7.9,329.1,0.00,0.4,8.0,"22:10:48",1
"18/12/27","22:30",0.0,4.5,73.3,1009.7,289.0,3.9,6.7,334.0,0.00,0.2,7.9,"22:29:12",1
"18/12/27","22:40",0.0,4.3,73.9,1009.3,294.4,3.5,6.0,329.7,0.00,0.1,7.7,"22:34:16",1
"18/12/27","22:50",0.0,4.0,74.1,1009.0,294.7,3.0,4.4,316.1,0.00,-0.2,7.7,"22:45:20",1
"18/12/27","23:00",0.0,3.9,75.0,1009.5,300.6,3.1,5.7,318.3,0.00,-0.1,7.5,"22:50:24",1
"18/12/27","23:10",0.0,4.0,73.8,1009.0,315.4,3.6,5.8,345.4,0.00,-0.2,7.7,"23:04:00",1
"18/12/27","23:20",0.0,3.8,73.0,1009.0,288.1,2.2,4.1,253.5,0.00,-0.5,7.5,"23:17:52",1
"18/12/27","23:30",0.0,3.9,71.8,1009.3,281.1,3.0,4.9,309.0,0.00,-0.7,7.5,"23:29:44",1
"18/12/27","23:40",0.0,3.8,70.6,1009.3,294.2,3.1,5.1,333.1,0.00,-1.0,7.4,"23:38:48",1
"18/12/27","23:50",0.0,3.7,70.0,1008.8,302.6,2.7,7.3,321.2,0.00,-1.2,7.5,"23:48:48",1
"18/12/27","24:00",0.0,3.8,67.4,1009.5,314.3,3.9,6.7,334.2,0.00,-1.6,7.5,"23:51:36",1
